Regional Weather Roundup
Issued by NWS

Home | Current Version | Previous Version | Graphics & Text | Print | Product List | Glossary On
Versions: 1 2 3 4 5 6 7 8 9 10 11 12 13 14 15 16 17 18 19 20 21 22 23 24 25 26 27 28 29 30 31 32 33 34 35 36 37 38 39 40 41 42 43 44 45 46 47 48 49 50
000
ASUS45 KCYS 300710
RWRWY

WYOMING REGIONAL WEATHER ROUNDUP
NATIONAL WEATHER SERVICE CHEYENNE WY
100 AM MDT SAT MAY 30 2015

NOTE:  "FAIR" INDICATES FEW OR NO CLOUDS BELOW 12,000 FEET
WITH NO SIGNIFICANT WEATHER AND/OR OBSTRUCTIONS TO VISIBILITY.

WYZ001-300800-
YELLOWSTONE NATIONAL PARK

CITY           SKY/WX    TMP DP  RH WIND       PRES   REMARKS
LK YELLOWSTONE   N/A     35  34  96 CALM      30.32R
W YELLOWSTONE  NOT AVBL

$$
WYZ002>013-054>058-071-098>099-300800-
NORTHERN WYOMING

CITY           SKY/WX    TMP DP  RH WIND       PRES   REMARKS
JACKSON        FAIR      45  43  93 N6        30.26R
CODY           FAIR      48  45  87 S3        30.18S
GREYBULL       FAIR      56  47  71 E6        30.16F
WORLAND        FAIR      54  44  69 S12       30.17F
SHERIDAN       FAIR      42  40  92 NW5       30.17F
BUFFALO        FAIR      45  44  97 SE9       30.20F
GILLETTE       FAIR      41  36  82 S9        30.23F
HULETT         FAIR      37  32  81 S3        30.25F
NEWCASTLE      CLOUDY    43  43 100 SE5       30.29S FOG

$$
WYZ014>020-022>026-101>103-300800-
CENTRAL WYOMING

CITY           SKY/WX    TMP DP  RH WIND       PRES   REMARKS
BIG PINEY      FAIR      45  40  82 SE6       30.32R
PINEDALE       FAIR      45  43  93 CALM      30.33S
DUBOIS         CLOUDY    45  41  87 W6        30.30F
LANDER         FAIR      49  44  83 N6        30.22F
RIVERTON       FAIR      50  45  83 S8        30.24F
CASPER         FAIR      39  37  92 NW6       30.27S WCI  35
DOUGLAS        FAIR      42  40  92 SE3       30.27F

$$
WYZ021-027>030-104>119-300800-
SOUTHERN WYOMING

CITY           SKY/WX    TMP DP  RH WIND       PRES   REMARKS
EVANSTON       FAIR      50  39  66 SE8       30.28R
KEMMERER       FAIR      48  37  66 CALM      30.30F
FORT BRIDGER   SUNNY     50  41  71 S9        30.31S
ROCK SPRINGS   FAIR      48  40  73 S9        30.29F
DIXON          FAIR      43  39  88 NE3       30.33S
RAWLINS        FAIR      42  38  85 CALM      30.31S
SARATOGA       FAIR      43  37  81 S8        30.32F
LARAMIE        FAIR      37  35  92 S6        30.33F WCI  32
CHEYENNE       FAIR      42  40  92 SW7       30.32F
TORRINGTON     CLOUDY    47  45  93 E8        30.27F
PINE BLUFFS    FAIR      41  41 100 S7        30.31S

$$



USA.gov is the U.S. government's official web portal to all federal, state and local government web resources and services.